[[{"header":{"parameterUnit":"m.s-1","parameterCategory":1,"la1":30.2991,"la2":30.254,"lo1":-89.0895,"lo2":-89.0444,"dy":0.0017,"dx":0.0017,"nx":28,"ny":28,"refTime":"2025-08-09T21:00:00:Z","depth":0,"parameterNumber":2,"parameterNumberName":"U-component_of_WINDS"},"data":[0,0,0,0,0,0,0,0,0,0,0,0,0,0,0,0,0,0,0,0,0,0,0,0,0,0,0,0,0,0,0,0,0,0,0,0,0,0,0,0,0,0,0,0,0,0,0,0,0,0,0,0,0,0,0,0,0,0,-2.8823,-2.8823,0,-2.8829,-2.8829,-2.8829,-2.8738,-2.8736,-2.8734,-2.8731,-2.8735,-2.8737,-2.8739,0,0,0,0,0,0,0,0,0,0,0,0,0,-2.8732,-2.8734,-2.8823,-2.8823,-2.8823,-2.8829,-2.8829,-2.8829,-2.8739,-2.8736,-2.8733,-2.873,-2.8734,-2.8737,-2.874,0,0,0,0,0,0,0,0,0,0,0,0,0,-2.8758,-2.8735,-2.8823,-2.8779,-2.8775,-2.8828,-2.8829,-2.8829,-2.8739,-2.8736,-2.8732,-2.8729,-2.8733,-2.8737,-2.874,-2.8835,0,0,-2.8751,-2.8752,0,0,0,0,0,0,0,0,-2.8757,-2.8762,-2.8785,-2.8782,-2.8778,-2.8779,-2.8798,-2.8831,-2.874,-2.8753,-2.8731,-2.8727,-2.8752,-2.8754,-2.8763,-2.8835,-2.8836,-2.8751,-2.8753,-2.8755,-2.8756,0,0,0,0,0,0,0,-2.8755,-2.8761,-2.8825,-2.8786,-2.8781,-2.8758,-2.8758,-2.8804,-2.8773,-2.8751,-2.8745,-2.8747,-2.875,-2.876,-2.8763,-2.8836,-2.8751,-2.8754,-2.8756,-2.8758,-2.8987,-2.8991,0,0,0,0,0,0,-2.876,-2.876,-2.8825,-2.8825,-2.8758,-2.8763,-2.8763,-2.8782,-2.8772,-2.8767,-2.875,-2.8743,-2.8756,-2.8758,-2.8762,-2.8873,-2.8755,-2.8758,-2.876,-2.8983,-2.8988,-2.8993,0,0,0,0,0,0,-2.8758,-2.8766,-2.8824,-2.8791,-2.8796,-2.8768,-2.8791,-2.8784,-2.8794,-2.8771,-2.8765,-2.8766,-2.8753,-2.8757,-2.8818,-2.8872,-2.876,-2.8763,-2.8979,-2.8985,-2.899,-2.9095,0,0,0,0,0,0,-2.8756,-2.8766,-2.8802,-2.8792,-2.8799,-2.8881,-2.8795,-2.8787,-2.8801,-2.8792,-2.8785,-2.878,-2.875,-2.8813,-2.8822,-2.8875,-2.8766,-2.8974,-2.8982,-2.8989,-2.9087,-2.9104,-2.9119,0,0,0,0,0,-2.8753,-2.883,-2.8804,-2.8813,-2.8843,-2.8884,-2.8887,-2.8852,-2.8806,-2.8841,-2.8827,-2.878,-2.8866,-2.882,-2.8829,-2.8884,-2.897,-2.8979,-2.8988,-2.908,-2.9101,-2.9119,0,0,0,0,0,0,-2.8845,-2.8828,-2.8799,-2.8876,-2.8882,-2.8868,-2.8912,-2.8875,-2.8894,-2.8884,-2.8839,-2.8838,-2.8907,-2.8901,-2.8852,-2.8976,-2.891,-2.8921,-2.8976,-2.8996,-2.9012,-2.9011,-2.8769,0,0,0,0,0,-2.8875,-2.891,-2.8893,-2.8963,-2.8968,-2.894,-2.8956,-2.8929,-2.8933,-2.8935,-2.8925,-2.893,-2.8958,-2.8977,-2.9001,-2.9087,-2.9084,-2.9129,-2.9145,-2.9158,-2.9168,-2.9213,-2.9233,-2.9022,-2.9022,-2.9022,0,0,-2.8935,-2.8931,-2.8955,-2.8981,-2.8983,-2.902,-2.8942,-2.8984,-2.9011,-2.8941,-2.8998,-2.8991,-2.8994,-2.9068,-2.91,-2.9066,-2.9226,-2.917,-2.9181,-2.9182,-2.9224,-2.9244,-2.9262,-2.9028,-2.9027,-2.9026,0,0,-2.9065,-2.9065,-2.9123,-2.9128,-2.9132,-2.9114,-2.9128,-2.9121,-2.9114,-2.9171,-2.9119,-2.9151,-2.92,-2.9204,-2.9213,-2.9349,-2.9306,-2.9358,-2.9441,-2.9485,-2.9502,-2.9516,-2.9564,-2.9581,-2.9368,-2.9368,-2.9369,0,-2.9139,-2.9193,-2.9158,-2.9204,-2.9217,-2.9158,-2.9216,-2.9222,-2.9234,-2.9244,-2.9206,-2.9268,-2.9265,-2.934,-2.9373,-2.9383,-2.9397,-2.9357,-2.9503,-2.9517,-2.953,-2.9574,-2.9593,-2.9375,-2.9374,-2.9373,-2.9373,0,-2.9285,-2.9324,-2.937,-2.9385,-2.9403,-2.9456,-2.9428,-2.9451,-2.9423,-2.9409,-2.9469,-2.9465,-2.9488,-2.9504,-2.9476,-2.9575,-2.9554,-2.9511,-2.9442,-2.9557,-2.9598,-2.9615,-2.9383,-2.9381,-2.9379,-2.9378,0,0,-2.9468,-2.9465,-2.9483,-2.9489,-2.9492,-2.9521,-2.9571,-2.9595,-2.9616,-2.9627,-2.9668,-2.9713,-2.9673,-2.9683,-2.9657,-2.9696,-2.9803,-2.9648,-2.9647,-2.9676,-2.9911,-2.9942,-2.9963,-2.9777,-2.978,-2.9783,-2.9911,0,-2.9592,-2.9678,-2.9649,-2.9737,-2.9772,-2.9719,-2.9763,-2.9769,-2.9758,-2.9787,-2.9774,-2.9806,-2.9752,-2.9758,-2.9795,-2.9783,-2.985,-2.9773,-2.9813,-2.9815,-2.9812,-2.9984,-3.0017,-3.0138,-2.9927,-2.9929,-2.9931,0,-2.9748,-2.9768,-2.986,-2.9858,-2.9872,-2.9912,-2.9932,-2.9961,-2.9968,-2.9957,-2.9971,-2.9936,-2.9985,-2.992,-2.9987,-2.9936,-2.9951,-2.9948,-2.9951,-2.9952,-2.9878,-2.9988,-3.0175,-3.0193,-2.9957,-2.9954,-2.9953,0,-2.9871,-2.9921,-2.9982,-2.999,-2.999,-3.0019,-3.0021,-3.0024,-3.0041,-3.0059,-3.007,-3.0094,-3.0106,-3.0125,-3.0098,-3.0053,-3.0169,-3.0101,-3.0161,-3.0162,-3.0185,-3.0183,-3.0376,-3.0199,-3.0199,-3.0198,-3.0198,0,-3.0012,-3.007,-3.0038,-3.0075,-3.0139,-3.0106,-3.017,-3.0165,-3.0169,-3.0204,-3.016,-3.0194,-3.0157,-3.0188,-3.0168,-3.0226,-3.0233,-3.0225,-3.0218,-3.0228,-3.0228,-3.0235,-3.0225,-3.0203,-3.0202,-3.0201,-3.02,0,-3.0158,-3.014,-3.0203,-3.0199,-3.02,-3.0247,-3.0243,-3.0277,-3.0265,-3.0311,-3.032,-3.03,-3.0334,-3.031,-3.0344,-3.033,-3.0407,-3.039,-3.0405,-3.0399,-3.046,-3.0454,-3.0661,-3.0686,-3.0495,-3.0497,-3.0499,0,-3.0248,-3.0291,-3.0294,-3.0315,-3.032,-3.0355,-3.0373,-3.0343,-3.0364,-3.0377,-3.041,-3.0441,-3.0463,-3.0521,-3.0509,-3.0535,-3.0517,-3.0588,-3.052,-3.0528,-3.0516,-3.0513,-3.0517,-3.06,-3.0603,-3.0605,-3.0606,0,-3.0409,-3.0398,-3.0426,-3.0453,-3.0476,-3.0495,-3.051,-3.053,-3.05,-3.0526,-3.0561,-3.0579,-3.0616,-3.0647,-3.0669,-3.0669,-3.0633,-3.0628,-3.0643,-3.0651,-3.0658,-3.0654,-3.044,-3.0623,-3.0621,-3.062,-3.0619,-3.0618,-3.0528,-3.0565,-3.0573,-3.0606,-3.0616,-3.0631,-3.0664,-3.0658,-3.0687,-3.0715,-3.0696,-3.0738,-3.0746,-3.0772,-3.0778,-3.081,-3.0781,-3.0802,-3.0807,-3.0813,-3.0821,-3.0656,-3.0814,-3.0814,-3.0813,-3.0813,-3.0812,0,-3.0685,-3.0689,-3.0721,-3.0744,-3.0771,-3.0738,-3.0754,-3.0778,-3.0816,-3.0827,-3.0851,-3.0893,-3.0924,-3.0916,-3.0944,-3.0972,-3.0956,-3.098,-3.0976,-3.0977,-3.0846,-3.083,-3.0992,-3.0992,-3.0992,-3.0992,-3.0992,-3.0992,-3.077,-3.083,-3.0822,-3.0887,-3.0889,-3.0932,-3.0944,-3.0958,-3.0967,-3.1016,-3.1042,-3.1038,-3.1042,-3.107,-3.1097,-3.1094,-3.1105,-3.1135,-3.1126,-3.1004,-3.0986,-3.0969,-3.0953,-3.1139,-3.1139,-3.1254,-3.1255,-3.1256]},{"header":{"parameterUnit":"m.s-1","parameterCategory":1,"la1":30.2991,"la2":30.254,"lo1":-89.0895,"lo2":-89.0444,"dy":0.0017,"dx":0.0017,"nx":28,"ny":28,"refTime":"2025-08-09T21:00:00:Z","depth":0,"parameterNumber":3,"parameterNumberName":"V-component_of_WINDS"},"data":[0,0,0,0,0,0,0,0,0,0,0,0,0,0,0,0,0,0,0,0,0,0,0,0,0,0,0,0,0,0,0,0,0,0,0,0,0,0,0,0,0,0,0,0,0,0,0,0,0,0,0,0,0,0,0,0,0,0,-1.9928,-1.9928,0,-1.988,-1.988,-1.9879,-1.9756,-1.9753,-1.975,-1.9748,-1.9702,-1.9703,-1.9704,0,0,0,0,0,0,0,0,0,0,0,0,0,-1.9918,-1.9919,-1.9929,-1.9928,-1.9927,-1.988,-1.988,-1.9879,-1.9756,-1.9753,-1.975,-1.9747,-1.9701,-1.9703,-1.9704,0,0,0,0,0,0,0,0,0,0,0,0,0,-1.9902,-1.9919,-1.9929,-1.986,-1.9854,-1.988,-1.988,-1.9879,-1.9757,-1.9753,-1.9749,-1.9745,-1.9701,-1.9702,-1.9704,-1.9794,0,0,-1.971,-1.9711,0,0,0,0,0,0,0,0,-1.9903,-1.9902,-1.9871,-1.9865,-1.9858,-1.982,-1.9859,-1.9851,-1.9758,-1.9794,-1.9748,-1.9743,-1.9744,-1.9742,-1.9742,-1.9792,-1.979,-1.971,-1.9711,-1.9712,-1.9712,0,0,0,0,0,0,0,-1.9904,-1.9903,-1.9909,-1.9871,-1.9863,-1.9833,-1.9826,-1.9857,-1.9792,-1.979,-1.9781,-1.9777,-1.974,-1.9741,-1.974,-1.979,-1.971,-1.9712,-1.9713,-1.9713,-1.9912,-1.9916,0,0,0,0,0,0,-1.9914,-1.9905,-1.9911,-1.9908,-1.9871,-1.9837,-1.9829,-1.9836,-1.9791,-1.978,-1.978,-1.9771,-1.9739,-1.9738,-1.9738,-1.984,-1.9712,-1.9714,-1.9715,-1.9908,-1.9913,-1.9917,0,0,0,0,0,0,-1.9915,-1.9916,-1.9913,-1.9904,-1.9901,-1.9841,-1.985,-1.9837,-1.9837,-1.9784,-1.9772,-1.9793,-1.9736,-1.9735,-1.9781,-1.9837,-1.9714,-1.9716,-1.9903,-1.9909,-1.9915,-2.0046,0,0,0,0,0,0,-1.9915,-1.9917,-1.995,-1.9906,-1.9902,-1.9956,-1.9853,-1.9839,-1.984,-1.9828,-1.9792,-1.9782,-1.9733,-1.9779,-1.9783,-1.9837,-1.9717,-1.9897,-1.9906,-1.9913,-2.0037,-2.0056,-2.0073,0,0,0,0,0,-1.9915,-1.9989,-1.9952,-1.9953,-1.9942,-1.996,-1.9958,-1.9899,-1.9846,-1.9878,-1.9844,-1.9783,-1.9831,-1.9785,-1.9788,-1.9844,-1.9894,-1.9903,-1.9912,-2.0028,-2.0052,-2.0072,0,0,0,0,0,0,-2.0042,-1.9982,-1.994,-2.0002,-1.9987,-1.9939,-1.9978,-1.9926,-1.9926,-1.9915,-1.9843,-1.9836,-1.9892,-1.9872,-1.9822,-1.9929,-1.9852,-1.9863,-1.9939,-1.9962,-1.9979,-1.9983,-1.9719,0,0,0,0,0,-2.0077,-2.0096,-2.0043,-2.0103,-2.0097,-2.004,-2.0045,-2.0001,-1.9983,-1.9976,-1.9944,-1.993,-1.9941,-1.995,-1.9958,-2.0034,-2.0024,-2.0074,-2.0092,-2.0107,-2.0117,-2.0156,-2.0177,-1.9948,-1.9948,-1.9948,0,0,-2.015,-2.012,-2.0136,-2.0127,-2.011,-2.0132,-2.0035,-2.0062,-2.0077,-1.998,-2.0021,-1.9998,-1.9977,-2.0038,-2.0064,-2.0024,-2.0178,-2.0119,-2.0131,-2.0133,-2.0168,-2.0189,-2.0209,-1.9954,-1.9953,-1.9952,0,0,-2.0294,-2.0273,-2.032,-2.0305,-2.028,-2.0241,-2.0253,-2.0213,-2.0194,-2.0234,-2.0161,-2.018,-2.0201,-2.0189,-2.0186,-2.0327,-2.0271,-2.0331,-2.0426,-2.0465,-2.0483,-2.0498,-2.0549,-2.0568,-2.0341,-2.0342,-2.0342,0,-2.0388,-2.0416,-2.0351,-2.0383,-2.0382,-2.0294,-2.0342,-2.0331,-2.0311,-2.0313,-2.0268,-2.0293,-2.0273,-2.033,-2.0365,-2.0365,-2.0377,-2.0335,-2.0485,-2.05,-2.0514,-2.0561,-2.058,-2.0349,-2.0348,-2.0348,-2.0347,0,-2.0533,-2.0554,-2.0596,-2.0577,-2.0581,-2.0621,-2.0563,-2.0575,-2.0531,-2.0498,-2.054,-2.0513,-2.0514,-2.0524,-2.0482,-2.0576,-2.0552,-2.0498,-2.0419,-2.0544,-2.0587,-2.0605,-2.036,-2.0357,-2.0355,-2.0353,0,0,-2.0754,-2.0699,-2.0716,-2.0706,-2.0673,-2.0689,-2.0726,-2.0726,-2.0737,-2.0727,-2.0756,-2.0777,-2.0726,-2.0723,-2.0679,-2.0713,-2.0827,-2.0654,-2.0653,-2.0687,-2.0929,-2.097,-2.0992,-2.079,-2.0793,-2.0796,-2.0931,0,-2.0889,-2.0946,-2.089,-2.096,-2.0979,-2.0897,-2.0929,-2.0913,-2.0883,-2.0896,-2.0864,-2.0879,-2.0812,-2.0809,-2.0839,-2.0806,-2.0874,-2.0796,-2.0817,-2.0819,-2.0824,-2.1014,-2.1057,-2.1185,-2.0947,-2.095,-2.0952,0,-2.1053,-2.1049,-2.1121,-2.1084,-2.109,-2.1119,-2.1115,-2.1128,-2.1109,-2.1085,-2.1082,-2.1029,-2.1063,-2.0987,-2.1034,-2.0983,-2.0988,-2.0974,-2.0977,-2.0976,-2.0892,-2.1018,-2.1225,-2.1244,-2.0978,-2.0976,-2.0974,0,-2.1207,-2.122,-2.1264,-2.1259,-2.1217,-2.124,-2.1224,-2.12,-2.1204,-2.1201,-2.1203,-2.1205,-2.1206,-2.1209,-2.1158,-2.1107,-2.1212,-2.1131,-2.1193,-2.1195,-2.1218,-2.1217,-2.1429,-2.1223,-2.1223,-2.1223,-2.1222,0,-2.1363,-2.141,-2.1333,-2.136,-2.1411,-2.1346,-2.1399,-2.1374,-2.1354,-2.1376,-2.1306,-2.1329,-2.126,-2.1276,-2.1237,-2.1282,-2.1283,-2.1266,-2.1254,-2.1271,-2.1274,-2.1274,-2.1263,-2.1228,-2.1227,-2.1226,-2.1225,0,-2.1542,-2.1492,-2.1535,-2.1492,-2.1482,-2.1522,-2.1485,-2.151,-2.1476,-2.1505,-2.1508,-2.1455,-2.147,-2.142,-2.1427,-2.1401,-2.1467,-2.1442,-2.1473,-2.1465,-2.153,-2.1525,-2.1748,-2.1775,-2.1554,-2.1556,-2.1558,0,-2.1644,-2.1678,-2.1639,-2.1648,-2.1635,-2.1651,-2.1655,-2.1593,-2.16,-2.1582,-2.1609,-2.1618,-2.1621,-2.165,-2.1613,-2.1618,-2.1592,-2.167,-2.1592,-2.1609,-2.1593,-2.1591,-2.1595,-2.1686,-2.1689,-2.1691,-2.1693,0,-2.1831,-2.1805,-2.1812,-2.1811,-2.1817,-2.1814,-2.1805,-2.1818,-2.1752,-2.1763,-2.1777,-2.178,-2.1787,-2.1798,-2.1795,-2.178,-2.1726,-2.1718,-2.1732,-2.175,-2.1767,-2.1758,-2.1517,-2.1713,-2.1711,-2.1709,-2.1708,-2.1707,-2.1974,-2.2001,-2.1977,-2.1988,-2.1975,-2.197,-2.199,-2.1959,-2.197,-2.197,-2.1934,-2.1956,-2.1937,-2.1928,-2.1918,-2.1935,-2.1899,-2.192,-2.1925,-2.1931,-2.1942,-2.1765,-2.1935,-2.1934,-2.1933,-2.1933,-2.1932,0,-2.2157,-2.2138,-2.2148,-2.2139,-2.2148,-2.2096,-2.2085,-2.2096,-2.2115,-2.2102,-2.2107,-2.2124,-2.2134,-2.2099,-2.2104,-2.2125,-2.21,-2.2128,-2.2126,-2.2123,-2.1974,-2.1961,-2.2148,-2.2148,-2.2148,-2.2148,-2.2148,-2.2148,-2.2253,-2.2295,-2.2267,-2.2303,-2.2284,-2.2304,-2.2302,-2.2297,-2.2286,-2.2308,-2.2315,-2.2292,-2.227,-2.2273,-2.2281,-2.227,-2.2275,-2.2312,-2.2293,-2.2155,-2.2134,-2.2114,-2.2101,-2.2314,-2.2314,-2.244,-2.2441,-2.2442]}]]